GFSFLT1_prec_radar_105.txt.gz
Reflectivity
-20 -20 -20 -20 -20 -20 -20 -20 -20 -20 -0 -10 -20 -20 -20 -20 -20 -20 -20 -20 -20 -20 -20 -20 -20 13 -19 -20 18 -20 -2 10
-20 -20 -20 -20 -20 -20 -20 -20 -20 -20 -10 13 -20 -20 -20 -20 -20 -16 -20 -20 -20 -20 -20 -20 -20 13 -13 -18 -20 -18 7 15
-20 -20 -20 -20 -20 -20 -20 -20 -20 -20 -20 4 -10 -20 -20 -20 -20 -20 -20 -3 -16 -20 -20 -20 -20 -7 -18 -9 -10 -20 10 11
-20 -20 -20 -20 -20 -20 -20 -20 -20 -20 -20 -9 6 -16 1 -19 -20 -20 -20 -15 -15 -8 -5 8 -10 0 -12 -15 -16 -20 -12 7
-20 -20 -20 -20 -20 -20 -20 -20 -20 -20 -20 -16 -17 -17 -20 -20 -20 -20 -20 -12 -10 5 11 -5 -3 18 12 -18 -20 -2 -9 12
-20 -20 -20 -20 -20 -20 -20 -20 -20 -20 -20 -20 -9 -20 -20 -20 -20 -20 -20 -20 -13 2 9 16 14 -6 13 26 22 10 -20 9
-19 5 -20 -20 -20 -20 -20 -20 -20 -20 -10 -1 3 -15 -20 -20 -20 -20 -20 -5 -20 6 7 5 10 13 17 9 7 14 1 8
9 20 -20 -20 -20 -20 -20 -20 -14 -10 -6 -13 -4 -19 -20 -20 -20 -20 -20 -13 -19 -15 -2 11 12 12 9 15 13 18 15 6
20 21 21 24 5 -20 6 13 -20 8 -7 -20 -20 -20 -20 -16 1 -20 -20 -19 -6 -20 -1 -3 13 14 21 15 9 14 13 -4
29 28 20 21 5 -18 -10 -8 -19 -11 7 -11 -7 -20 -13 -13 6 4 -19 -20 -20 -20 -20 -20 0 -0 13 15 -3 16 7 2
31 24 33 22 8 11 -20 -20 -6 -13 11 -1 3 27 2 27 -10 -10 -19 -20 -20 -20 -20 -20 -20 -20 -12 -20 4 -1 2 5
32 20 -17 -9 20 4 30 -15 -14 22 21 16 -12 -8 4 4 7 4 -4 -9 9 15 14 -5 -20 -11 -13 -10 -1 0 9 11
17 1 7 22 7 -7 10 26 -14 -20 24 27 -18 8 6 -9 -16 26 -8 9 10 -12 7 -20 5 10 14 15 13 10 25 11
-19 -20 -7 -5 -15 -15 14 -15 22 21 25 23 16 26 -13 -3 26 27 -6 7 -6 28 -20 0 -2 -20 -20 -19 11 12 13 6
-1 -19 -20 -20 -20 12 -10 -10 14 24 28 32 17 31 17 27 29 8 11 21 -4 -20 -20 -18 9 -20 -6 -18 -20 -20 -6 -2
-20 -20 -20 -20 -20 -20 -20 -20 -0 -12 13 -8 6 19 24 26 7 -6 20 -0 -20 -3 -13 9 5 -17 -16 -20 -20 -18 -17 17
-19 -20 -20 -20 -20 -20 -20 -13 -20 17 31 32 24 22 -3 4 22 16 -20 -20 -20 -8 -20 -10 13 -20 2 11 6 -10 25 28
-17 -14 -15 -16 -17 -20 -8 -6 -8 -15 35 28 34 20 21 9 9 2 -8 15 -20 -20 -20 -20 -20 -20 -6 8 -19 3 29 33
-15 -14 -10 -8 -19 -20 -20 -20 10 -18 11 15 18 18 23 16 21 19 2 10 13 -20 -20 -20 -20 -3 11 18 13 2 13 31

GFSFLT1_prec_radar_111.txt.gz
Reflectivity
-20 -20 -20 -20 -20 -20 -20 -20 -20 -20 -20 -20 -2 2 -20 -20 -20 -20 -20 -20 -20 8 -15 -18 8 -14 -20 -20 -20 -20 -20 -12
-20 -20 -20 -20 -20 -20 -20 -20 -20 -20 -20 -7 -0 -20 -20 -12 -20 -14 -18 -13 -20 11 6 -20 7 -13 -20 -20 -20 -2 -12 -20
-20 -20 -20 -14 -4 -17 -20 -20 -20 -20 -20 -20 -20 -20 -20 -16 -20 -14 -20 -20 -20 -20 -7 -20 10 -5 -20 -20 -20 -20 -14 6
-20 -20 -20 -20 -20 -16 -20 -20 -20 -20 -20 -20 -17 -0 6 6 -14 -20 -20 -20 -20 -20 -16 -8 -2 5 -20 -20 -20 -20 -20 -17
-20 -20 -20 -20 -20 -20 -20 -20 -20 -20 -20 -20 -20 -20 -5 -18 -20 -20 -18 -20 -20 -20 -20 -2 29 11 -20 -20 -20 -20 -20 -20
-20 -20 -20 -20 -20 -20 -20 -20 -20 -20 -20 -20 -20 -20 -20 -20 -1 3 -20 -20 -2 -20 -20 -19 11 13 -20 -20 -12 -20 -20 -20
-3 -20 -20 -12 -12 -20 -20 -19 -20 -20 -20 -20 -20 -20 -20 -7 2 3 -12 -20 -7 -1 -17 -19 -17 -13 -19 -18 -15 -20 -20 -20
-20 -20 -15 -18 -20 -13 8 7 -20 -20 -20 -20 -20 1 8 6 -8 -7 -17 -20 -15 -9 -20 -20 5 -19 -15 -14 -10 -11 -5 -16
-20 -12 -20 19 14 18 12 17 9 -7 -20 -20 -3 3 4 11 7 4 1 4 -20 3 -20 7 -3 1 6 20 -13 4 7 12
-19 -17 -20 9 11 30 24 17 18 28 -17 -20 2 7 12 3 11 12 -20 -20 -20 -10 14 -9 10 2 20 16 12 9 12 18
15 6 4 -10 12 29 23 24 22 19 -18 19 -17 -4 26 14 -3 -11 -20 -16 -20 -20 11 -9 -3 -8 17 24 13 15 10 5
17 22 19 23 28 20 18 15 21 17 -11 19 16 -2 10 26 26 -11 -14 -20 -20 10 -13 -3 -20 28 15 13 4 10 11 -1
18 25 31 25 31 33 28 27 14 -2 19 7 30 21 10 7 16 26 8 -13 -3 11 -4 -20 20 2 -2 -11 -4 5 19 4
19 24 28 36 22 23 20 14 7 5 21 27 26 25 24 19 18 13 17 22 6 32 -2 16 -7 -0 -20 -6 9 15 -10 -15
9 12 6 5 18 22 33 15 29 26 21 24 26 25 28 23 26 19 19 19 21 27 17 -8 12 10 12 -2 -11 6 -20 -9
6 3 2 -1 1 -16 18 13 9 35 11 31 25 22 24 28 18 12 21 14 4 17 16 0 11 23 11 -9 -18 -20 -20 -20
12 6 -19 -20 -5 8 10 -1 8 22 42 14 5 27 25 14 22 18 24 21 19 7 4 22 33 -2 -5 6 0 2 -20 2
7 5 1 -3 -6 -6 -1 3 15 15 9 33 31 20 41 36 29 36 28 31 28 28 35 30 1 -1 11 -10 -18 -3 14 -0
-11 -16 -19 -16 -20 -20 -19 -18 6 20 8 16 38 36 32 38 40 33 35 37 38 25 20 -7 15 3 -9 -7 17 -11 -11 5

GFSFLT1_prec_radar_114.txt.gz
Reflectivity
-20 -20 -20 -20 -20 -20 -20 -20 -20 -20 -20 -20 -20 -20 -20 -20 -20 -20 -20 -20 -20 -9 -17 6 0 -20 -2 5 6 4 2 6
-20 -20 -20 -20 -20 -20 -20 -20 -20 -20 -20 -20 -20 -20 -20 -20 -20 -20 -20 -20 -20 -20 -20 1 -0 -0 -16 -15 -6 8 13 15
-20 -20 -20 -20 -20 -20 -20 -20 -20 -20 -20 -20 -20 -20 -20 -20 -20 -20 -20 -20 -20 -20 -20 -9 5 -14 -20 -15 -20 -20 -4 4
-20 -20 -20 -20 -20 -20 -20 -20 -20 -20 -20 -20 -20 -20 -20 -20 -20 2 -11 -20 -20 -20 -20 -2 -2 -1 -20 12 5 -20 -3 4
-20 -20 -20 -20 -20 -20 -20 -20 -20 -20 -20 -20 -20 -20 -20 -20 -19 -15 -20 -20 -13 -12 -1 2 2 1 -5 -10 -1 1 -20 -20
-20 -20 -20 -20 -20 -20 -20 -20 -20 -20 -20 -20 -20 -20 -20 -20 -20 -20 -20 -1 2 3 4 5 1 4 -19 -14 12 -5 -12 -10
-20 -20 -20 -20 -20 -20 -20 -20 -20 -20 -20 -20 -15 -20 -20 -20 -20 -20 -20 5 5 -20 -10 -13 -1 4 1 -20 -13 -4 -14 4
-20 -20 -20 -20 -20 -20 -20 -20 -20 -20 -20 -20 -6 -7 -20 -20 -20 -20 -17 8 -7 -2 -20 -2 8 -9 0 0 7 -0 -16 -20
-20 -12 -20 -20 -20 -20 -20 -20 -20 -20 -20 -20 -20 -18 -20 -20 -20 -20 -17 4 -5 -0 -19 -20 11 -12 -14 -1 -12 -6 1 -2
-19 -19 -17 -17 -20 -20 -20 -20 -9 2 -4 -9 -15 -19 7 -19 -19 -2 3 11 2 11 18 16 1 13 -20 -4 3 -18 -1 25
-1 -2 3 2 -2 0 -12 14 20 23 18 11 -11 -20 -20 9 14 13 12 16 14 12 2 5 -4 26 -12 -19 -8 -2 15 5
7 5 5 6 3 6 6 36 23 23 17 23 22 -17 1 17 8 -0 -2 16 30 14 16 8 -6 13 14 4 -13 -10 26 -6
5 8 22 19 20 24 22 30 40 21 17 18 11 2 -4 -18 9 17 21 -3 15 -20 5 -16 7 1 6 13 -16 16 19 16
2 10 25 29 20 32 26 29 37 21 22 23 28 30 20 20 23 6 4 -6 7 14 17 23 32 28 15 23 27 23 29 6
10 17 21 16 15 29 37 20 29 27 20 13 22 27 32 20 26 30 23 31 30 32 27 23 -7 -10 -8 -2 14 7 -10 21
2 4 6 9 13 11 19 25 37 35 25 22 21 23 21 27 26 25 28 25 29 29 19 7 18 10 5 14 21 11 18 19
4 10 12 9 7 13 9 9 17 27 34 29 19 28 26 25 25 28 19 22 12 16 5 12 23 3 26 26 26 26 23 14
-1 8 -0 5 7 2 6 14 14 16 16 33 30 36 39 33 39 41 28 28 27 24 19 18 26 20 21 17 20 29 16 -15
-11 -1 -9 -8 -20 -20 -20 -19 -6 21 11 17 25 20 24 38 35 33 33 36 26 18 16 28 34 39 30 37 34 3 -20 -20

GFSFLT1_prec_radar_117.txt.gz
Reflectivity
-20 -20 -20 -20 -20 -20 -20 -20 -20 -20 -20 -20 -20 -20 -20 -20 -20 -20 -20 -20 -20 1 -20 3 -1 -20 -0 7 9 8 5 -8
-20 -20 -20 -20 -20 -20 -20 -20 -20 -20 -20 -20 -20 -20 -20 -20 -20 -20 -20 -20 -20 0 -20 -20 -20 0 -19 6 5 11 7 12
-20 -20 -20 -20 -20 -20 -20 -20 -20 -20 -20 -20 -20 -20 -20 -20 -20 -20 -20 -20 -20 -20 -20 -20 3 -1 -20 -2 7 10 12 10
-20 -20 -20 -20 -20 -20 -20 -20 -20 -20 -20 -20 -20 -20 -20 -20 -20 -20 -20 -20 -1 -20 -20 -20 -20 -1 0 -20 3 4 7 14
-20 -20 -20 -20 -20 -20 -20 -20 -20 -20 -20 -20 -20 -20 -20 -20 -14 -20 -20 -13 -16 -20 -5 -14 -13 -2 0 -12 5 -13 -16 -15
-20 -20 -20 -20 -20 -20 -20 -20 -20 -20 -20 -20 -20 -20 -20 -20 -20 -20 -20 -13 -7 -18 4 6 7 8 3 1 -4 -4 -19 -20
-20 -20 -20 -20 -20 -20 -20 -20 -20 -20 -20 -20 -20 -20 -20 -20 -20 -20 -20 -16 3 5 8 7 5 9 10 6 7 7 -16 -17
-20 -20 -20 -20 -20 -20 -20 -20 -20 -20 -20 -20 -20 -14 -10 -20 -20 -20 20 -14 -10 -3 10 -8 8 -8 -6 7 1 2 -5 -20
-20 -20 -20 -20 -20 -20 -9 -20 -20 -20 -20 -20 -20 -18 -20 -20 -20 -20 -20 9 -20 4 6 7 9 11 2 1 -20 -18 -20 -20
-19 -20 -3 -3 1 1 -3 -2 -7 -20 -20 -15 -20 -20 -20 -19 -20 -20 -20 -4 -20 -12 4 -18 7 14 3 -20 -13 -15 -16 -5
-7 -5 -2 0 3 4 3 -9 -15 -20 -20 -16 -15 -19 -17 -11 8 -20 -20 -20 9 -20 11 -9 -3 12 18 19 -11 -19 22 5
6 2 -2 1 9 1 -1 -2 -20 -19 -18 -2 10 11 11 -17 12 -14 -20 -20 1 -20 24 -11 -1 15 8 11 20 -11 9 17
1 4 2 7 11 5 -6 5 -8 11 33 11 18 20 21 0 -18 30 -20 9 20 -12 -20 -4 3 16 16 18 20 23 -6 2
-19 1 7 15 15 8 18 23 23 36 31 25 25 24 21 -0 7 26 11 -19 38 24 -7 36 26 6 9 -0 8 11 7 16
-3 0 12 8 12 16 20 26 26 31 32 26 25 12 -12 -0 6 29 26 18 23 21 -9 10 28 13 10 13 23 17 26 2
5 6 9 11 6 21 30 22 28 24 36 34 24 12 13 17 7 28 21 20 25 22 22 24 17 9 20 19 23 22 28 18
8 9 6 2 5 11 15 13 24 27 20 29 34 34 22 8 19 28 27 28 30 20 21 23 29 31 30 29 21 26 27 22
-11 -1 1 -4 3 2 12 22 17 17 25 24 28 29 39 28 32 29 16 22 24 24 28 20 24 25 28 25 23 25 23 9
-4 -0 -1 -1 -18 -16 -20 -20 -20 -20 -10 4 13 21 26 31 31 27 23 24 28 20 25 25 19 25 30 28 24 28 36 37

GFSFLT1_prec_radar_120.txt.gz
Reflectivity
-20 -20 -20 -20 -20 -20 -20 -20 -20 -20 -20 -20 -20 -20 -15 -20 -5 -5 7 -20 -20 -20 2 -20 -20 -20 -20 -20 -20 -20 4 3
-20 -20 -20 -20 -20 -20 -20 -20 -20 -20 -20 -20 -20 -20 -20 -20 -20 34 29 -20 -20 -20 -20 -13 -20 -20 -20 -20 -20 -20 5 10
-20 -20 -20 -20 -20 -20 -20 -20 -20 -20 -20 -20 -20 -20 -20 -20 -20 -6 -20 -20 -15 -20 -20 -20 -20 -20 -20 -20 -18 -20 -20 12
-20 -20 -20 -20 -20 -20 -20 -20 -20 -20 -20 -20 -20 -20 -20 -20 -20 -20 -19 -20 -20 5 -20 -20 -20 -20 -20 -20 -20 -20 -20 -12
-20 -20 -20 -20 -20 -20 -20 -20 -20 -20 -20 -20 -20 -20 -20 -20 -20 -20 7 -20 -20 2 10 -20 -19 -5 -6 -20 -20 -20 -13 -19
-20 -20 -20 -20 -20 -20 -20 -20 -20 -20 -20 -20 -20 -20 -20 -20 -20 -20 -20 -20 -20 -16 36 -16 -4 -20 -2 -5 -19 -20 -20 -10
-20 -20 -20 -20 -20 -20 -20 -20 -20 -20 -20 -20 -20 -20 -20 -20 -20 -20 -20 -20 -18 -9 -16 8 1 2 22 43 33 -17 -20 -16
-20 -20 -20 -20 -20 -20 -20 -20 -20 -20 -20 -20 -20 -20 -20 -20 -20 -20 -20 -20 -20 -11 -12 -17 -10 -8 -19 -17 19 -2 -10 -20
-20 -20 -20 -20 -20 -20 -20 -11 -10 -20 -8 -20 -20 -20 -20 -20 -20 -20 -20 -20 -20 -20 -20 12 -9 -10 -0 -16 -20 -5 -7 19
-20 -20 -20 -18 -8 -10 -9 3 -0 -5 -9 -4 -20 -20 -20 -20 -20 -20 -20 -20 -20 -20 -20 -20 30 4 10 11 4 -17 11 -13
-20 -17 -9 -1 1 2 5 2 2 -1 -16 -20 -20 -20 -20 -20 -20 -20 -20 -20 -20 -20 -20 -20 30 32 28 4 9 16 6 13
-5 -4 -2 6 3 4 -3 1 1 -13 -19 -17 -19 5 4 2 -0 12 -20 -20 -20 -20 19 -19 30 50 36 31 7 8 12 2
5 6 5 14 12 20 5 5 9 8 8 1 2 4 13 7 17 20 6 0 -20 26 32 -20 20 33 39 18 -9 13 15 -2
9 16 19 17 14 24 23 13 15 28 34 22 20 24 12 17 21 18 17 -20 -20 18 -20 26 31 33 33 11 -1 15 -8 15
15 8 15 17 14 25 16 8 15 27 33 35 24 25 29 28 26 12 -16 11 17 11 17 26 30 32 16 14 12 22 20 24
14 11 10 2 -5 -5 7 10 3 18 22 27 33 32 29 26 12 20 -17 10 32 39 31 32 34 30 32 29 28 19 20 28
13 10 -6 -16 -12 -3 2 8 16 16 19 24 26 35 33 21 15 20 31 29 39 37 32 23 32 31 31 35 18 20 27 28
6 -18 -17 -20 -20 -20 -20 -20 -20 -15 -4 11 16 21 28 26 22 19 30 26 25 26 30 32 32 31 40 33 32 31 31 29
-0 -20 -20 -20 -20 -20 -20 -20 -20 -20 -20 -17 -2 14 20 26 30 31 32 19 15 22 14 18 24 23 26 43 34 31 32 26